Location: Sternwarte_Laufen
(47.9344°N, 12.9346°E)
Time: 23:20:46
(UTC+02:00)

ISS - Pass Details

Date: 15 July 2018
Orbit: 402 x 408 km, 51.6° (Epoch: 16 July)

Event Time Altitude Azimuth Distance (km) Brightness Sun altitude
Exits shadow 03:22:31 - 281° (W) 1,867 -0.7 -14.8°
Reaches altitude 10° 03:23:31 10° 285° (WNW) 1,469 -1.2 -14.7°
Maximum altitude 03:26:40 41° 358° (N) 603 -2.5 -14.4°
Drops below altitude 10° 03:29:49 10° 71° (ENE) 1,472 -0.2 -14.2°
Sets 03:31:59 0° 79° (ENE) 2,334 0.7 -14.0°
